Starlink 1031

operational
NORAD ID: 44736 Int'l Des: 2019-074 Owner: SPXS Country: US Constellation: starlink
LEOCIRCULAR

Über Starlink 1031

Beschreibung wird geladen...

Live-Position

3D-Globus wird geladen...

Nächste Überflüge

Höhenverlauf

Altitude vs Time

uPlot chart will show altitude changes over time

Zweizeiliger Elementsatz

1 44736U 19074Z 25275.92539925 .00087365 00000-0 20925-2 0 9999
2 44736 53.0529 171.7619 0009239 86.8085 273.3976 15.40672340325021
Epoch: 2. Okt. 2025 • Age: 62 hours

Aktueller Status

Höhe 441.0 km
Geschwindigkeit 7.65 km/s
Subsatellitenpunkt 29.63°N, 19.42°W
Startdatum 11. Nov. 2019
Alter 5.8 years
Typ internet

Technische Details

Klassifizierung Payload
Masse 260.00 kg
Trockenmasse 248.00 kg
Gesamtmasse 260.00 kg
Länge 0.20 m
Durchmesser 2.80 m
Spannweite 9.00 m
Form Box + pan
Hersteller SPXS
Bus-Typ Starlink
Phasenstatus In Orbit
Besitzer/Staat SPXS/US

Große Konstellationen

Loading constellations...